Regional Weather Roundup
Issued by NWS Cleveland, OH

Home | Current Version | Previous Version | Text Only | Print | Product List | Glossary On
Versions: 1 2 3 4 5 6 7 8 9 10 11 12 13 14 15 16 17 18 19 20 21 22 23 24 25 26 27 28 29 30 31 32 33 34 35 36 37 38 39 40 41 42 43 44 45 46 47 48 49 50
000
ASUS41 KCLE 261210
RWRCLE
OHIO REGIONAL WEATHER ROUNDUP
NATIONAL WEATHER SERVICE CLEVELAND, OH
800 AM EDT SUN APR 26 2015

NOTE: "FAIR" INDICATES FEW OR NO CLOUDS BELOW 12,000 FEET WITH NO
SIGNIFICANT WEATHER AND/OR OBSTRUCTIONS TO VISIBILITY.

OHZ001>008-015>018-024>027-034-035-043-044-261300-
   NORTHWEST OHIO

CITY           SKY/WX    TMP DP  RH WIND       PRES   REMARKS
DEFIANCE       SUNNY     39  28  64 NE10      29.89R
FINDLAY        SUNNY     40  32  73 N14       29.85R
TOLEDO EXPRESS SUNNY     36  27  69 N8        29.88R
TOLEDO EXEC    SUNNY     39  29  67 N5        29.89R
LIMA           SUNNY     36  30  79 N12       29.84R
$$

OHZ009>014-019>023-028>033-038-089-261300-
   NORTHEAST OHIO

CITY           SKY/WX    TMP DP  RH WIND       PRES   REMARKS
CLE-HOPKINS    SUNNY     40  35  83 N9        29.86R
CLE-LAKEFRONT  SUNNY     42  34  73 N13       29.84R
CUY CO. ARPT   NOT AVBL
LORAIN-ELYRIA  SUNNY     39  33  79 NE10      29.85R
ASHTABULA      SUNNY     38  32  79 VRB5      29.83R
AKRON-CANTON   MOSUNNY   41  27  57 NE13      29.80R
WOOSTER        SUNNY     39  29  67 N8        29.81R
MANSFIELD      SUNNY     38  32  79 N9        29.81R
YOUNGSTOWN     MOSUNNY   39  27  62 NE12      29.79R
$$

OHZ042-051>053-060>062-070>072-077>081-261300-
  SOUTHWEST OHIO

CITY           SKY/WX    TMP DP  RH WIND       PRES   REMARKS
CINC-COVINGTON PTSUNNY   42  32  67 N12       29.78R
CINC-LUNKEN    MOSUNNY   42  33  70 N6        29.80R
HAMILTON       MOSUNNY   43  33  68 NE14      29.81R
DAYTON         MOSUNNY   40  33  76 N15       29.82R
WRIGHT-PAT AFB MOSUNNY   40  33  76 N13       29.80R
DAYTON GENERAL PTSUNNY   41  33  73 N10       29.79R
WILMINGTON     CLOUDY    40  32  73 N10G22    29.78R
$$

OHZ036-037-039>041-045>050-054>059-063>069-073>076-082>088-261300-
  CENTRAL AND SOUTHEAST OHIO

CITY           SKY/WX    TMP DP  RH WIND       PRES   REMARKS
COLUMBUS       PTSUNNY   40  31  70 N8        29.78R
OSU AIRPORT    CLOUDY    39  31  72 N13       29.79R
BOLTON FIELD   PTSUNNY   39  34  81 N8        29.79R
RICKENBACK AFB CLOUDY    40  31  70 N9        29.78R
NEWARK         CLOUDY    41  30  65 NE6       29.77R
MARION         SUNNY     38  34  85 N14       29.82R
LANCASTER      CLOUDY    41  31  67 NW5       29.78R
ZANESVILLE     MOSUNNY   41  29  62 N6        29.76R
NEW PHILLY     SUNNY     42  28  57 N6        29.79R
$$


USA.gov is the U.S. government's official web portal to all federal, state and local government web resources and services.